Location: Villingen
(48.0639°N, 8.4609°E)
Time: 00:19:04
(UTC+01:00)

ISS - Visible Passes

Search period start: 22 November 2017 00:00
Search period end: 02 December 2017 00:00
Orbit: 402 x 407 km, 51.6° (Epoch: 22 November)

Date Brightness Start Highest point End Pass type
(mag) Time Alt. Az. Time Alt. Az. Time Alt. Az.
27 Nov -1.2 19:07:04 10° SSW 19:07:52 15° SSW 19:07:52 15° SSW visible
28 Nov -2.1 18:15:23 10° S 18:17:52 20° SE 18:17:52 20° SE visible
29 Nov -1.4 17:24:25 10° SSE 17:25:43 12° SE 17:27:02 10° ESE visible
29 Nov -2.3 18:58:24 10° SW 19:00:26 34° SW 19:00:26 34° SW visible
30 Nov -3.0 18:06:16 10° SW 18:09:21 38° SSE 18:10:16 30° ESE visible
30 Nov -0.4 19:42:31 10° W 19:42:55 13° W 19:42:55 13° W visible
01 Dec -2.2 17:14:24 10° SSW 17:17:06 23° SE 17:19:48 10° E visible
01 Dec -3.1 18:50:02 10° WSW 18:52:42 54° W 18:52:42 54° W visible
